| time (UTC) | temp F | wind direction | speed knots | gust knots | rain 1hr in | rain 24hr in | rain mn in | humidity % | barometer mb |
| 20260905221532 | 75 | 149 | 0.0 | 2.6 | 0.00 | 0.00 | 0.00 | 39 | 1018.6 |
| 20260905220032 | 74 | 144 | 0.0 | 2.6 | 0.00 | 0.00 | 0.00 | 42 | 1018.8 |
| 20260905214532 | 72 | 134 | 0.0 | 1.7 | 0.00 | 0.00 | 0.00 | 45 | 1019.0 |
| 20260905213037 | 72 | 141 | 0.0 | 1.7 | 0.00 | 0.00 | 0.00 | 44 | 1019.2 |
| 20260905211532 | 72 | 153 | 0.0 | 2.6 | 0.00 | 0.00 | 0.00 | 46 | 1019.3 |
| 20260905210028 | 72 | 140 | 0.0 | 2.6 | 0.00 | 0.00 | 0.00 | 46 | 1019.3 |
| 20260905204532 | 71 | 157 | 0.0 | 1.7 | 0.00 | 0.00 | 0.00 | 46 | 1019.3 |
| 20260905203031 | 73 | 149 | 0.9 | 3.5 | 0.00 | 0.00 | 0.00 | 45 | 1019.3 |
| 20260905201531 | 72 | 175 | 0.0 | 2.6 | 0.00 | 0.00 | 0.00 | 47 | 1019.4 |
| 20260905200028 | 72 | 185 | 0.0 | 2.6 | 0.00 | 0.00 | 0.00 | 48 | 1019.6 |
| 20260905194604 | 72 | 140 | 0.9 | 4.3 | 0.00 | 0.00 | 0.00 | 50 | 1019.8 |
| 20260905193031 | 68 | 85 | 0.0 | 0.9 | 0.00 | 0.00 | 0.00 | 55 | 1020.0 |
| 20260905191533 | 65 | 67 | 0.0 | 0.9 | 0.00 | 0.00 | 0.00 | 60 | 1020.3 |
| 20260905184606 | 63 | 50 | 0.0 | 0.0 | 0.00 | 0.00 | 0.00 | 64 | 1020.7 |
| 20260905183034 | 0 | 0 | 0.0 | 0.0 | 0.00 | 0.00 | 0.00 | 100 | |
| 20260905181531 | 0 | 0 | 0.0 | 0.0 | 0.00 | 0.00 | 0.00 | 100 | |
| 20260905180031 | 0 | 0 | 0.0 | 0.0 | 0.00 | 0.00 | 0.00 | 100 | |
| 20260905174603 | 0 | 0 | 0.0 | 0.0 | 0.00 | 0.00 | 0.00 | 100 | |
| 20260905171644 | 0 | 0 | 0.0 | 0.0 | 0.00 | 0.00 | 0.00 | 100 | |
| 20260905170030 | 58 | 225 | 0.0 | 0.0 | 0.00 | 0.00 | 0.00 | 75 | 1020.8 |
| 20260905163030 | 56 | 225 | 0.0 | 0.9 | 0.00 | 0.00 | 0.00 | 78 | 1020.8 |
| 20260905161529 | 55 | 225 | 0.0 | 0.9 | 0.00 | 0.00 | 0.00 | 80 | 1020.8 |
| 20260905160030 | 53 | 225 | 0.0 | 0.9 | 0.00 | 0.00 | 0.00 | 84 | 1020.8 |
| 20260905154604 | 52 | 225 | 0.0 | 2.6 | 0.00 | 0.00 | 0.00 | 85 | 1020.7 |
| 20260905153031 | 51 | 225 | 0.9 | 2.6 | 0.00 | 0.00 | 0.00 | 85 | 1020.7 |
| 20260905150031 | 50 | 233 | 0.9 | 2.6 | 0.00 | 0.00 | 0.00 | 86 | 1020.7 |
| 20260905143030 | 48 | 244 | 0.9 | 2.6 | 0.00 | 0.00 | 0.00 | 87 | 1020.5 |
| 20260905140031 | 47 | 229 | 1.7 | 3.5 | 0.00 | 0.00 | 0.00 | 88 | 1020.3 |
| 20260905134605 | 47 | 227 | 0.9 | 2.6 | 0.00 | 0.00 | 0.00 | 89 | 1020.2 |
| 20260905133031 | 47 | 234 | 0.9 | 2.6 | 0.00 | 0.00 | 0.00 | 89 | 1019.9 |
| 20260905131530 | 48 | 225 | 0.9 | 2.6 | 0.00 | 0.00 | 0.00 | 89 | 1019.9 |
| 20260905130031 | 47 | 254 | 0.9 | 2.6 | 0.00 | 0.00 | 0.00 | 90 | 1019.8 |
| 20260905123032 | 48 | 247 | 0.9 | 1.7 | 0.00 | 0.00 | 0.00 | 88 | 1019.7 |
| 20260905121528 | 49 | 253 | 0.0 | 2.6 | 0.00 | 0.00 | 0.00 | 88 | 1019.7 |
| 20260905120029 | 50 | 253 | 0.9 | 1.7 | 0.00 | 0.00 | 0.00 | 88 | 1019.7 |
| 20260905114531 | 50 | 225 | 0.9 | 2.6 | 0.00 | 0.00 | 0.00 | 87 | 1019.7 |
| 20260905111533 | 51 | 225 | 0.0 | 0.9 | 0.00 | 0.00 | 0.00 | 86 | 1019.6 |
| 20260905110031 | 50 | 225 | 0.9 | 1.7 | 0.00 | 0.00 | 0.00 | 87 | 1019.7 |
| 20260905104530 | 50 | 226 | 0.9 | 2.6 | 0.00 | 0.00 | 0.00 | 87 | 1019.6 |
| 20260905103032 | 51 | 240 | 0.9 | 1.7 | 0.00 | 0.00 | 0.00 | 86 | 1019.5 |
| 20260905100031 | 52 | 244 | 0.9 | 2.6 | 0.00 | 0.00 | 0.00 | 84 | 1019.7 |
| 20260905091530 | 51 | 237 | 0.9 | 3.5 | 0.00 | 0.00 | 0.00 | 83 | 1019.6 |
| 20260905090031 | 51 | 225 | 1.7 | 2.6 | 0.00 | 0.00 | 0.00 | 84 | 1019.5 |
| 20260905084531 | 51 | 228 | 0.9 | 1.7 | 0.00 | 0.00 | 0.00 | 85 | 1019.4 |
| 20260905083030 | 0 | 0 | 0.0 | 0.0 | 0.00 | 0.00 | 0.00 | 100 | |
| 20260905081531 | 0 | 0 | 0.0 | 0.0 | 0.00 | 0.00 | 0.00 | 100 | |
| 20260905080032 | 57 | 270 | 0.0 | 0.0 | 0.00 | 0.00 | 0.00 | 71 | 1018.2 |
| 20260905074531 | 0 | 0 | 0.0 | 0.0 | 0.00 | 0.00 | 0.00 | 100 | |
| 20260905073031 | 0 | 0 | 0.0 | 0.0 | 0.00 | 0.00 | 0.00 | 100 | |
| 20260905071532 | 0 | 0 | 0.0 | 0.0 | 0.00 | 0.00 | 0.00 | 100 | |
| 20260905070030 | 0 | 0 | 0.0 | 0.0 | 0.00 | 0.00 | 0.00 | 100 | |
| 20260905064531 | 0 | 0 | 0.0 | 0.0 | 0.00 | 0.00 | 0.00 | 100 | |
| 20260905063029 | 0 | 0 | 0.0 | 0.0 | 0.00 | 0.00 | 0.00 | 100 | |
| 20260905061531 | 0 | 0 | 0.0 | 0.0 | 0.00 | 0.00 | 0.00 | 100 | |
| 20260905060031 | 0 | 0 | 0.0 | 0.0 | 0.00 | 0.00 | 0.00 | 100 | |
| 20260905054531 | 60 | 45 | 0.0 | 0.0 | 0.00 | 0.00 | 0.00 | 65 | 1017.3 |
| 20260905053031 | 0 | 0 | 0.0 | 0.0 | 0.00 | 0.00 | 0.00 | 100 | |
| 20260905051532 | 0 | 0 | 0.0 | 0.0 | 0.00 | 0.00 | 0.00 | 100 | |
| 20260905050030 | 0 | 0 | 0.0 | 0.0 | 0.00 | 0.00 | 0.00 | 100 | |
| 20260905044532 | 0 | 0 | 0.0 | 0.0 | 0.00 | 0.00 | 0.00 | 100 | |
| 20260905041531 | 64 | 45 | 0.0 | 0.0 | 0.00 | 0.00 | 0.00 | 59 | 1017.0 |
| 20260905040030 | 0 | 0 | 0.0 | 0.0 | 0.00 | 0.00 | 0.00 | 100 | |
| 20260905034532 | 0 | 0 | 0.0 | 0.0 | 0.00 | 0.00 | 0.00 | 100 | |
| 20260905033032 | 0 | 0 | 0.0 | 0.0 | 0.00 | 0.00 | 0.00 | 100 | |
| 20260905031606 | 0 | 0 | 0.0 | 0.0 | 0.00 | 0.00 | 0.00 | 100 | |
| 20260905030105 | 0 | 0 | 0.0 | 0.0 | 0.00 | 0.00 | 0.00 | 100 | |
| 20260905024531 | 0 | 0 | 0.0 | 0.0 | 0.00 | 0.00 | 0.00 | 100 | |
| 20260905023032 | 0 | 0 | 0.0 | 0.0 | 0.00 | 0.00 | 0.00 | 100 | |
| 20260905021532 | 0 | 0 | 0.0 | 0.0 | 0.00 | 0.00 | 0.00 | 100 | |
| 20260905020032 | 0 | 0 | 0.0 | 0.0 | 0.00 | 0.00 | 0.00 | 100 | |
| 20260905014531 | 65 | 59 | 0.0 | 1.7 | 0.00 | 0.00 | 0.00 | 57 | 1016.9 |
| 20260905013028 | 66 | 52 | 0.0 | 2.6 | 0.00 | 0.00 | 0.00 | 53 | 1016.7 |
| 20260905011530 | 66 | 28 | 0.0 | 2.6 | 0.00 | 0.00 | 0.00 | 53 | 1016.5 |
| 20260905010028 | 67 | 35 | 0.9 | 3.5 | 0.00 | 0.00 | 0.00 | 54 | 1016.3 |
| 20260905004606 | 68 | 36 | 0.0 | 4.3 | 0.00 | 0.00 | 0.00 | 56 | 1016.2 |
| 20260905003034 | 68 | 45 | 0.9 | 3.5 | 0.00 | 0.00 | 0.00 | 55 | 1016.1 |
| 20260905001528 | 67 | 55 | 0.9 | 3.5 | 0.00 | 0.00 | 0.00 | 54 | 1016.1 |
| 20260905000031 | 64 | 47 | 0.0 | 1.7 | 0.00 | 0.00 | 0.00 | 62 | 1016.1 |
| 20260904234531 | 62 | 64 | 0.0 | 0.9 | 0.00 | 0.00 | 0.00 | 64 | 1016.2 |
| 20260904233030 | 62 | 172 | 0.0 | 2.6 | 0.00 | 0.00 | 0.00 | 62 | 1016.6 |
| 20260904231533 | 63 | 265 | 0.9 | 2.6 | 0.00 | 0.00 | 0.00 | 56 | 1016.3 |
| 20260904230029 | 66 | 327 | 0.9 | 3.5 | 0.00 | 0.00 | 0.00 | 50 | 1016.0 |
| 20260904224533 | 68 | 34 | 0.9 | 2.6 | 0.00 | 0.00 | 0.00 | 46 | 1015.6 |
| 20260904223030 | 0 | 0 | 0.0 | 0.0 | 0.00 | 0.00 | 0.00 | 100 |